Location: Linz
(48.3300°N, 14.3000°E)
Time: 21:26:28
(UTC+01:00)

ISS - Pass Details

Date: 11 November 2017
Orbit: 401 x 407 km, 51.6° (Epoch: 25 November)

Event Time Altitude Azimuth Distance (km) Brightness Sun altitude
Exits shadow 05:10:19 48° 351° (N) 532 -3.4 -19.0°
Maximum altitude 05:10:34 50° 9° (N) 521 -3.4 -18.9°
Drops below altitude 10° 05:13:46 10° 87° (E) 1,455 0.2 -18.4°
Sets 05:15:53 0° 93° (E) 2,314 1.7 -18.0°
